User: anonymous   Login
Location: Arbon
(43.0005°N, 0.7472°E)
Time: 05:17:21
(UTC+00:00)
Language:

Cosmos 1953 - Orbit

View from above orbital plane
View from above orbital plane
View from above satellite
View from above satellite

Ground track
Ground track

The orbit data is extracted from the following two-line orbital elements,

1 19210U 88050A   20304.19222282 +.00000214 +00000-0 +12654-4 0  9990
2 19210 082.5132 279.0245 0014105 027.0724 333.1236 15.06047980741944
Epoch (UTC): 30 October 2020 04:36:48
Eccentricity: 0.0014105
inclination: 82.5132°
perigee height: 538 km
apogee height: 558 km
right ascension of ascending node: 279.0245°
argument of perigee: 27.0724°
revolutions per day: 15.06047980
mean anomaly at epoch: 333.1236°
orbit number at epoch: 74194

The dashed part of the orbit path shows where the satellite is in the earth's shadow,  

DLR